Content
SEND FEEDBACK

Daily
Averages
Monthly
Summary
United States of America

ST. LOUIS, MISSOURI


Home > North America > United States > Missouri
Elevation: 535 feet     Latitude: 38 45N     Longitude: 090 22W

WEATHER
 
SELECT A DAY
Number of Records: 196,674;   Date Range: 1/1/95 - 9/21/14
 
SHARE

PRINT THIS DATA

[ ← Previous Day ]
WEATHER ALMANAC - JUNE 24, 2013
[ Next Day → ]
[ °C ]   °F
We're sorry. There is no daily almanac available for St. Louis, Missouri on June 24, 2013.
WEATHER BY HOUR - JUNE 24, 2013
[ °C ]   °F
Local TimeTemperatureDewpointHumidityBarometerVisibilityWind DirectionWind SpeedGust SpeedPrecipitationEventsConditions
1:54 AM68.0 °F66.0 °F93 %30.00 in10.0 miCalmClear
2:54 AM69.1 °F66.0 °F90 %29.99 in10.0 miCalmClear
3:54 AM68.0 °F64.9 °F90 %29.99 in10.0 miCalmClear
4:54 AM68.0 °F64.9 °F90 %29.99 in10.0 miCalmClear
5:54 AM66.9 °F64.9 °F93 %30.01 in7.0 miCalmScattered Clouds
6:54 AM69.1 °F66.0 °F90 %30.03 in10.0 miCalmClear
7:54 AM73.0 °F68.0 °F84 %30.04 in10.0 miCalmClear
8:54 AM79.0 °F72.0 °F79 %30.04 in9.0 miCalmScattered Clouds
9:54 AM82.9 °F72.0 °F69 %30.04 in10.0 miSW (230°)8.1 mphPartly Cloudy
10:54 AM84.9 °F72.0 °F65 %30.02 in10.0 miSouth (180°)6.9 mphClear
11:18 AM86.0 °F71.6 °F62 %30.04 in1.8 miSSW (200°)10.4 mphHaze
11:25 AM87.8 °F71.6 °F58 %30.04 in10.0 miWSW (240°)9.2 mphClear
11:54 AM88.0 °F72.0 °F59 %30.01 in10.0 miWSW (250°)6.9 mphClear
12:54 PM89.1 °F73.0 °F59 %30.00 in10.0 miWest (260°)5.8 mphPartly Cloudy
1:54 PM90.0 °F72.0 °F55 %29.98 in10.0 miSSW (210°)9.2 mphPartly Cloudy
2:54 PM90.0 °F70.0 °F52 %29.96 in10.0 miSSW (200°)9.2 mphPartly Cloudy
3:54 PM91.0 °F70.0 °F50 %29.96 in10.0 miSSW (210°)10.4 mphScattered Clouds
4:54 PM91.0 °F70.0 °F50 %29.94 in10.0 miSSW (200°)9.2 mphPartly Cloudy
5:54 PM91.0 °F71.1 °F52 %29.94 in10.0 miSSW (210°)5.8 mphClear
6:54 PM89.1 °F71.1 °F55 %29.93 in10.0 miSouth (190°)4.6 mphPartly Cloudy
7:54 PM86.0 °F72.0 °F63 %29.91 in10.0 miCalmScattered Clouds
8:54 PM80.1 °F73.0 °F79 %29.92 in10.0 miCalmMostly Cloudy
9:54 PM82.9 °F70.0 °F65 %29.92 in10.0 miSouth (180°)5.8 mphClear
10:54 PM82.0 °F70.0 °F67 %29.91 in10.0 miSouth (180°)9.2 mphClear
11:54 PM82.0 °F70.0 °F67 %29.90 in10.0 miSouth (190°)6.9 mphClear
Hourly data recorded from KSUS, located miles away from St. Louis, Missouri







STORIES FROM OUR PARTNERS